Location: Altenst�hlen
(53.5567°N, 8.9425°E)
Time: 10:20:48
(UTC+00:00)

Cosmos 1777 Rocket - Pass Details

Date: 23 October 2019
Orbit: 759 x 775 km, 74.0° (Epoch: 18 November)

Event Time Altitude Azimuth Distance (km) Brightness Sun altitude
Rises 16:40:15 0° 333° (NNW) 3,240 7.4 -5.1°
Reaches altitude 10° 16:42:38 10° 333° (NNW) 2,308 6.7 -5.4°
Maximum altitude 16:47:53 85° 246° (WSW) 771 4.1 -6.2°
Drops below altitude 10° 16:53:05 10° 158° (SSE) 2,287 6.4 -6.9°
Sets 16:55:26 0° 158° (SSE) 3,208 7.1 -7.3°
